Year,Month,Day,Hour,Minute,Value (Times are PST for temperature in C)
2006,07,21,00,00,20.80
2006,07,21,00,01,20.80
2006,07,21,00,02,20.80
2006,07,21,00,03,20.80
2006,07,21,00,04,20.80
2006,07,21,00,05,20.80
2006,07,21,00,06,20.80
2006,07,21,00,07,20.80
2006,07,21,00,08,20.80
2006,07,21,00,09,20.80
2006,07,21,00,10,20.80
2006,07,21,00,11,20.80
2006,07,21,00,12,20.80
2006,07,21,00,13,20.70
2006,07,21,00,14,20.70
2006,07,21,00,15,20.70
2006,07,21,00,16,20.70
2006,07,21,00,17,20.70
2006,07,21,00,18,20.70
2006,07,21,00,19,20.60
2006,07,21,00,20,20.60
2006,07,21,00,21,20.60
2006,07,21,00,22,20.50
2006,07,21,00,23,20.50
2006,07,21,00,24,20.50
2006,07,21,00,25,20.40
2006,07,21,00,26,20.30
2006,07,21,00,27,20.30
2006,07,21,00,28,20.20
2006,07,21,00,29,20.20
2006,07,21,00,30,20.20
2006,07,21,00,31,20.10
2006,07,21,00,32,20.00
2006,07,21,00,33,19.90
2006,07,21,00,34,19.90
2006,07,21,00,35,19.90
2006,07,21,00,36,19.90
2006,07,21,00,37,19.80
2006,07,21,00,38,19.80
2006,07,21,00,39,19.80
2006,07,21,00,40,19.70
2006,07,21,00,41,19.70
2006,07,21,00,42,19.70
2006,07,21,00,43,19.70
2006,07,21,00,44,19.60
2006,07,21,00,45,19.60
2006,07,21,00,46,19.60
2006,07,21,00,47,19.60
2006,07,21,00,48,19.60
2006,07,21,00,49,19.60
2006,07,21,00,50,19.60
2006,07,21,00,51,19.60
2006,07,21,00,52,19.50
2006,07,21,00,53,19.50
2006,07,21,00,54,19.50
2006,07,21,00,55,19.50
2006,07,21,00,56,19.50
2006,07,21,00,57,19.50
2006,07,21,00,58,19.50
2006,07,21,00,59,19.40
2006,07,21,01,00,19.40
2006,07,21,01,01,19.30
2006,07,21,01,02,19.30
2006,07,21,01,03,19.30
2006,07,21,01,04,19.30
2006,07,21,01,05,19.30
2006,07,21,01,06,19.30
2006,07,21,01,07,19.30
2006,07,21,01,08,19.30
2006,07,21,01,09,19.30
2006,07,21,01,10,19.30
2006,07,21,01,11,19.30
2006,07,21,01,12,19.30
2006,07,21,01,13,19.30
2006,07,21,01,14,19.30
2006,07,21,01,15,19.40
2006,07,21,01,16,19.40
2006,07,21,01,17,19.40
2006,07,21,01,18,19.40
2006,07,21,01,19,19.40
2006,07,21,01,20,19.40
2006,07,21,01,21,19.40
2006,07,21,01,22,19.50
2006,07,21,01,23,19.50
2006,07,21,01,24,19.50
2006,07,21,01,25,19.50
2006,07,21,01,26,19.50
2006,07,21,01,27,19.60
2006,07,21,01,28,19.70
2006,07,21,01,29,19.70
2006,07,21,01,30,19.70
2006,07,21,01,31,19.70
2006,07,21,01,32,19.80
2006,07,21,01,33,19.80
2006,07,21,01,34,19.80
2006,07,21,01,35,19.80
2006,07,21,01,36,19.80
2006,07,21,01,37,19.80
2006,07,21,01,38,19.80
2006,07,21,01,39,19.80
2006,07,21,01,40,19.80
2006,07,21,01,41,19.80
2006,07,21,01,42,19.80
2006,07,21,01,43,19.80
2006,07,21,01,44,19.80
2006,07,21,01,45,19.80
2006,07,21,01,46,19.70
2006,07,21,01,47,19.70
2006,07,21,01,48,19.60
2006,07,21,01,49,19.60
2006,07,21,01,50,19.60
2006,07,21,01,51,19.50
2006,07,21,01,52,19.50
2006,07,21,01,53,19.50
2006,07,21,01,54,19.40
2006,07,21,01,55,19.40
2006,07,21,01,56,19.40
2006,07,21,01,57,19.40
2006,07,21,01,58,19.30
2006,07,21,01,59,19.30
2006,07,21,02,00,19.30
2006,07,21,02,01,19.30
2006,07,21,02,02,19.20
2006,07,21,02,03,19.20
2006,07,21,02,04,19.20
2006,07,21,02,05,19.20
2006,07,21,02,06,19.20
2006,07,21,02,07,19.20
2006,07,21,02,08,19.20
2006,07,21,02,09,19.20
2006,07,21,02,10,19.30
2006,07,21,02,11,19.30
2006,07,21,02,12,19.30
2006,07,21,02,13,19.40
2006,07,21,02,14,19.40
2006,07,21,02,15,19.40
2006,07,21,02,16,19.50
2006,07,21,02,17,19.50
2006,07,21,02,18,19.50
2006,07,21,02,19,19.50
2006,07,21,02,20,19.50
2006,07,21,02,21,19.50
2006,07,21,02,22,19.50
2006,07,21,02,23,19.50
2006,07,21,02,24,19.60
2006,07,21,02,25,19.60
2006,07,21,02,26,19.60
2006,07,21,02,27,19.60
2006,07,21,02,28,19.60
2006,07,21,02,29,19.60
2006,07,21,02,30,19.60
2006,07,21,02,31,19.60
2006,07,21,02,32,19.60
2006,07,21,02,33,19.60
2006,07,21,02,34,19.60
2006,07,21,02,35,19.60
2006,07,21,02,36,19.70
2006,07,21,02,37,19.70
2006,07,21,02,38,19.70
2006,07,21,02,39,19.70
2006,07,21,02,40,19.70
2006,07,21,02,41,19.70
2006,07,21,02,42,19.70
2006,07,21,02,43,19.70
2006,07,21,02,44,19.90
2006,07,21,02,45,20.00
2006,07,21,02,46,20.10
2006,07,21,02,47,20.20
2006,07,21,02,48,20.30
2006,07,21,02,49,20.40
2006,07,21,02,50,20.50
2006,07,21,02,51,20.60
2006,07,21,02,52,20.60
2006,07,21,02,53,20.70
2006,07,21,02,54,20.70
2006,07,21,02,55,20.80
2006,07,21,02,56,20.80
2006,07,21,02,57,20.80
2006,07,21,02,58,20.80
2006,07,21,02,59,20.80
2006,07,21,03,00,20.80
2006,07,21,03,01,20.80
2006,07,21,03,02,20.80
2006,07,21,03,03,20.80
2006,07,21,03,04,20.80
2006,07,21,03,05,20.80
2006,07,21,03,06,20.80
2006,07,21,03,07,20.80
2006,07,21,03,08,20.80
2006,07,21,03,09,20.80
2006,07,21,03,10,20.70
2006,07,21,03,11,20.70
2006,07,21,03,12,20.60
2006,07,21,03,13,20.60
2006,07,21,03,14,20.50
2006,07,21,03,15,20.40
2006,07,21,03,16,20.30
2006,07,21,03,17,20.20
2006,07,21,03,18,20.20
2006,07,21,03,19,20.20
2006,07,21,03,20,20.10
2006,07,21,03,21,20.10
2006,07,21,03,22,20.10
2006,07,21,03,23,20.00
2006,07,21,03,24,19.90
2006,07,21,03,25,19.90
2006,07,21,03,26,19.90
2006,07,21,03,27,19.90
2006,07,21,03,28,19.90
2006,07,21,03,29,19.80
2006,07,21,03,30,19.80
2006,07,21,03,31,19.80
2006,07,21,03,32,19.80
2006,07,21,03,33,19.70
2006,07,21,03,34,19.60
2006,07,21,03,35,19.60
2006,07,21,03,36,19.60
2006,07,21,03,37,19.60
2006,07,21,03,38,19.60
2006,07,21,03,39,19.50
2006,07,21,03,40,19.50
2006,07,21,03,41,19.50
2006,07,21,03,42,19.50
2006,07,21,03,43,19.40
2006,07,21,03,44,19.40
2006,07,21,03,45,19.40
2006,07,21,03,46,19.30
2006,07,21,03,47,19.30
2006,07,21,03,48,19.40
2006,07,21,03,49,19.40
2006,07,21,03,50,19.40
2006,07,21,03,51,19.50
2006,07,21,03,52,19.50
2006,07,21,03,53,19.50
2006,07,21,03,54,19.60
2006,07,21,03,55,19.60
2006,07,21,03,56,19.60
2006,07,21,03,57,19.60
2006,07,21,03,58,19.70
2006,07,21,03,59,19.70
2006,07,21,04,00,19.70
2006,07,21,04,01,19.70
2006,07,21,04,02,19.70
2006,07,21,04,03,19.70
2006,07,21,04,04,19.60
2006,07,21,04,05,19.60
2006,07,21,04,06,19.60
2006,07,21,04,07,19.60
2006,07,21,04,08,19.60
2006,07,21,04,09,19.70
2006,07,21,04,10,19.70
2006,07,21,04,11,19.70
2006,07,21,04,12,19.70
2006,07,21,04,13,19.70
2006,07,21,04,14,19.70
2006,07,21,04,15,19.70
2006,07,21,04,16,19.70
2006,07,21,04,17,19.70
2006,07,21,04,18,19.70
2006,07,21,04,19,19.70
2006,07,21,04,20,19.70
2006,07,21,04,21,19.70
2006,07,21,04,22,19.70
2006,07,21,04,23,19.70
2006,07,21,04,24,19.80
2006,07,21,04,25,19.80
2006,07,21,04,26,19.80
2006,07,21,04,27,19.80
2006,07,21,04,28,19.80
2006,07,21,04,29,19.80
2006,07,21,04,30,19.90
2006,07,21,04,31,19.90
2006,07,21,04,32,19.90
2006,07,21,04,33,19.90
2006,07,21,04,34,19.90
2006,07,21,04,35,20.10
2006,07,21,04,36,20.10
2006,07,21,04,37,20.20
2006,07,21,04,38,20.20
2006,07,21,04,39,20.20
2006,07,21,04,40,20.20
2006,07,21,04,41,20.30
2006,07,21,04,42,20.30
2006,07,21,04,43,20.40
2006,07,21,04,44,20.40
2006,07,21,04,45,20.30
2006,07,21,04,46,20.30
2006,07,21,04,47,20.10
2006,07,21,04,48,19.90
2006,07,21,04,49,19.90
2006,07,21,04,50,19.80
2006,07,21,04,51,19.50
2006,07,21,04,52,19.40
2006,07,21,04,53,19.30
2006,07,21,04,54,19.30
2006,07,21,04,55,19.20
2006,07,21,04,56,19.10
2006,07,21,04,57,19.10
2006,07,21,04,58,19.30
2006,07,21,04,59,19.30
2006,07,21,05,00,19.50
2006,07,21,05,01,19.60
2006,07,21,05,02,19.60
2006,07,21,05,03,19.50
2006,07,21,05,04,19.40
2006,07,21,05,05,19.40
2006,07,21,05,06,19.30
2006,07,21,05,07,19.20
2006,07,21,05,08,19.10
2006,07,21,05,09,19.10
2006,07,21,05,10,19.10
2006,07,21,05,11,19.10
2006,07,21,05,12,19.10
2006,07,21,05,13,19.10
2006,07,21,05,14,18.90
2006,07,21,05,15,18.90
2006,07,21,05,16,18.90
2006,07,21,05,17,18.70
2006,07,21,05,18,18.60
2006,07,21,05,19,18.50
2006,07,21,05,20,18.40
2006,07,21,05,21,18.20
2006,07,21,05,22,18.10
2006,07,21,05,23,17.90
2006,07,21,05,24,17.80
2006,07,21,05,25,17.70
2006,07,21,05,26,17.70
2006,07,21,05,27,17.60
2006,07,21,05,28,17.50
2006,07,21,05,29,17.40
2006,07,21,05,30,17.30
2006,07,21,05,31,17.30
2006,07,21,05,32,17.30
2006,07,21,05,33,17.30
2006,07,21,05,34,17.30
2006,07,21,05,35,17.30
2006,07,21,05,36,17.20
2006,07,21,05,37,17.20
2006,07,21,05,38,17.30
2006,07,21,05,39,17.30
2006,07,21,05,40,17.30
2006,07,21,05,41,17.30
2006,07,21,05,42,17.30
2006,07,21,05,43,17.30
2006,07,21,05,44,17.30
2006,07,21,05,45,17.30
2006,07,21,05,46,17.30
2006,07,21,05,47,17.30
2006,07,21,05,48,17.30
2006,07,21,05,49,17.30
2006,07,21,05,50,17.30
2006,07,21,05,51,17.30
2006,07,21,05,52,17.40
2006,07,21,05,53,17.50
2006,07,21,05,54,17.50
2006,07,21,05,55,17.60
2006,07,21,05,56,17.70
2006,07,21,05,57,17.70
2006,07,21,05,58,17.80
2006,07,21,05,59,17.80
2006,07,21,06,00,17.80
2006,07,21,06,01,18.00
2006,07,21,06,02,18.10
2006,07,21,06,03,18.10
2006,07,21,06,04,18.30
2006,07,21,06,05,18.40
2006,07,21,06,06,18.50
2006,07,21,06,07,18.60
2006,07,21,06,08,18.70
2006,07,21,06,09,18.90
2006,07,21,06,10,19.00
2006,07,21,06,11,19.10
2006,07,21,06,12,19.20
2006,07,21,06,13,19.30
2006,07,21,06,14,19.40
2006,07,21,06,15,19.40
2006,07,21,06,16,19.50
2006,07,21,06,17,19.60
2006,07,21,06,18,19.60
2006,07,21,06,19,19.60
2006,07,21,06,20,19.70
2006,07,21,06,21,19.80
2006,07,21,06,22,19.80
2006,07,21,06,23,19.90
2006,07,21,06,24,19.90
2006,07,21,06,25,20.00
2006,07,21,06,26,20.10
2006,07,21,06,27,20.10
2006,07,21,06,28,20.20
2006,07,21,06,29,20.20
2006,07,21,06,30,20.20
2006,07,21,06,31,20.20
2006,07,21,06,32,20.20
2006,07,21,06,33,20.20
2006,07,21,06,34,20.40
2006,07,21,06,35,20.40
2006,07,21,06,36,20.40
2006,07,21,06,37,20.50
2006,07,21,06,38,20.50
2006,07,21,06,39,20.50
2006,07,21,06,40,20.50
2006,07,21,06,41,20.40
2006,07,21,06,42,20.40
2006,07,21,06,43,20.30
2006,07,21,06,44,20.20
2006,07,21,06,45,20.20
2006,07,21,06,46,20.20
2006,07,21,06,47,20.10
2006,07,21,06,48,20.10
2006,07,21,06,49,20.10
2006,07,21,06,50,20.20
2006,07,21,06,51,20.20
2006,07,21,06,52,20.20
2006,07,21,06,53,20.20
2006,07,21,06,54,20.20
2006,07,21,06,55,20.20
2006,07,21,06,56,20.20
2006,07,21,06,57,20.20
2006,07,21,06,58,20.20
2006,07,21,06,59,20.10
2006,07,21,07,00,19.90
2006,07,21,07,01,19.90
2006,07,21,07,02,19.80
2006,07,21,07,03,19.80
2006,07,21,07,04,19.70
2006,07,21,07,05,19.60
2006,07,21,07,06,19.60
2006,07,21,07,07,19.60
2006,07,21,07,08,19.50
2006,07,21,07,09,19.50
2006,07,21,07,10,19.50
2006,07,21,07,11,19.50
2006,07,21,07,12,19.50
2006,07,21,07,13,19.50
2006,07,21,07,14,19.50
2006,07,21,07,15,19.50
2006,07,21,07,16,19.50
2006,07,21,07,17,19.60
2006,07,21,07,18,19.60
2006,07,21,07,19,19.60
2006,07,21,07,20,19.70
2006,07,21,07,21,19.70
2006,07,21,07,22,19.80
2006,07,21,07,23,19.80
2006,07,21,07,24,19.90
2006,07,21,07,25,19.90
2006,07,21,07,26,20.00
2006,07,21,07,27,20.10
2006,07,21,07,28,20.20
2006,07,21,07,29,20.20
2006,07,21,07,30,20.20
2006,07,21,07,31,20.30
2006,07,21,07,32,20.40
2006,07,21,07,33,20.50
2006,07,21,07,34,20.50
2006,07,21,07,35,20.60
2006,07,21,07,36,20.70
2006,07,21,07,37,20.80
2006,07,21,07,38,20.80
2006,07,21,07,39,20.90
2006,07,21,07,40,21.10
2006,07,21,07,41,21.20
2006,07,21,07,42,21.30
2006,07,21,07,43,21.30
2006,07,21,07,44,21.40
2006,07,21,07,45,21.40
2006,07,21,07,46,21.60
2006,07,21,07,47,21.60
2006,07,21,07,48,21.60
2006,07,21,07,49,21.70
2006,07,21,07,50,21.80
2006,07,21,07,51,21.80
2006,07,21,07,52,22.00
2006,07,21,07,53,22.10
2006,07,21,07,54,22.10
2006,07,21,07,55,22.20
2006,07,21,07,56,22.20
2006,07,21,07,57,22.30
2006,07,21,07,58,22.40
2006,07,21,07,59,22.40
2006,07,21,08,00,22.50
2006,07,21,08,01,22.60
2006,07,21,08,02,22.80
2006,07,21,08,03,22.90
2006,07,21,08,04,23.00
2006,07,21,08,05,23.20
2006,07,21,08,06,23.30
2006,07,21,08,07,23.30
2006,07,21,08,08,23.40
2006,07,21,08,09,23.50
2006,07,21,08,10,23.60
2006,07,21,08,11,23.70
2006,07,21,08,12,23.70
2006,07,21,08,13,23.80
2006,07,21,08,14,23.80
2006,07,21,08,15,23.80
2006,07,21,08,16,23.90
2006,07,21,08,17,23.90
2006,07,21,08,18,23.90
2006,07,21,08,19,24.00
2006,07,21,08,20,24.10
2006,07,21,08,21,24.00
2006,07,21,08,22,23.90
2006,07,21,08,23,23.90
2006,07,21,08,24,23.90
2006,07,21,08,25,23.90
2006,07,21,08,26,23.90
2006,07,21,08,27,23.90
2006,07,21,08,28,23.90
2006,07,21,08,29,23.90
2006,07,21,08,30,23.90
2006,07,21,08,31,23.90
2006,07,21,08,32,23.80
2006,07,21,08,33,23.80
2006,07,21,08,34,23.80
2006,07,21,08,35,23.80
2006,07,21,08,36,23.90
2006,07,21,08,37,23.90
2006,07,21,08,38,23.90
2006,07,21,08,39,23.90
2006,07,21,08,40,24.00
2006,07,21,08,41,24.10
2006,07,21,08,42,24.00
2006,07,21,08,43,23.90
2006,07,21,08,44,23.90
2006,07,21,08,45,23.90
2006,07,21,08,46,23.90
2006,07,21,08,47,23.90
2006,07,21,08,48,23.90
2006,07,21,08,49,24.00
2006,07,21,08,50,24.10
2006,07,21,08,51,24.10
2006,07,21,08,52,24.10
2006,07,21,08,53,24.10
2006,07,21,08,54,24.10
2006,07,21,08,55,24.20
2006,07,21,08,56,24.20
2006,07,21,08,57,24.20
2006,07,21,08,58,24.10
2006,07,21,08,59,24.10
2006,07,21,09,00,24.20
2006,07,21,09,01,24.20
2006,07,21,09,02,24.30
2006,07,21,09,03,24.40
2006,07,21,09,04,24.40
2006,07,21,09,05,24.40
2006,07,21,09,06,24.40
2006,07,21,09,07,24.40
2006,07,21,09,08,24.40
2006,07,21,09,09,24.40
2006,07,21,09,10,24.40
2006,07,21,09,11,24.40
2006,07,21,09,12,24.40
2006,07,21,09,13,24.50
2006,07,21,09,14,24.50
2006,07,21,09,15,24.60
2006,07,21,09,16,24.70
2006,07,21,09,17,24.70
2006,07,21,09,18,24.90
2006,07,21,09,19,24.90
2006,07,21,09,20,24.90
2006,07,21,09,21,24.90
2006,07,21,09,22,24.90
2006,07,21,09,23,25.00
2006,07,21,09,24,25.00
2006,07,21,09,25,25.00
2006,07,21,09,26,25.10
2006,07,21,09,27,25.10
2006,07,21,09,28,25.20
2006,07,21,09,29,25.30
2006,07,21,09,30,25.30
2006,07,21,09,31,25.30
2006,07,21,09,32,25.30
2006,07,21,09,33,25.30
2006,07,21,09,34,25.20
2006,07,21,09,35,25.20
2006,07,21,09,36,25.20
2006,07,21,09,37,25.20
2006,07,21,09,38,25.30
2006,07,21,09,39,25.30
2006,07,21,09,40,25.40
2006,07,21,09,41,25.50
2006,07,21,09,42,25.60
2006,07,21,09,43,25.60
2006,07,21,09,44,25.60
2006,07,21,09,45,25.60
2006,07,21,09,46,25.60
2006,07,21,09,47,25.60
2006,07,21,09,48,25.70
2006,07,21,09,49,25.80
2006,07,21,09,50,25.80
2006,07,21,09,51,25.80
2006,07,21,09,52,25.80
2006,07,21,09,53,25.80
2006,07,21,09,54,25.80
2006,07,21,09,55,25.80
2006,07,21,09,56,25.90
2006,07,21,09,57,25.90
2006,07,21,09,58,26.00
2006,07,21,09,59,26.00
2006,07,21,10,00,26.00
2006,07,21,10,01,26.00
2006,07,21,10,02,26.00
2006,07,21,10,03,26.00
2006,07,21,10,04,26.10
2006,07,21,10,05,26.20
2006,07,21,10,06,26.20
2006,07,21,10,07,26.30
2006,07,21,10,08,26.40
2006,07,21,10,09,26.40
2006,07,21,10,10,26.50
2006,07,21,10,11,26.60
2006,07,21,10,12,26.60
2006,07,21,10,13,26.50
2006,07,21,10,14,26.40
2006,07,21,10,15,26.60
2006,07,21,10,16,26.60
2006,07,21,10,17,26.60
2006,07,21,10,18,26.70
2006,07,21,10,19,26.80
2006,07,21,10,20,26.90
2006,07,21,10,21,27.00
2006,07,21,10,22,27.10
2006,07,21,10,23,27.10
2006,07,21,10,24,27.10
2006,07,21,10,25,27.10
2006,07,21,10,26,27.10
2006,07,21,10,27,27.00
2006,07,21,10,28,26.90
2006,07,21,10,29,26.80
2006,07,21,10,30,26.70
2006,07,21,10,31,26.60
2006,07,21,10,32,26.60
2006,07,21,10,33,26.60
2006,07,21,10,34,26.70
2006,07,21,10,35,26.70
2006,07,21,10,36,26.80
2006,07,21,10,37,26.80
2006,07,21,10,38,26.80
2006,07,21,10,39,26.80
2006,07,21,10,40,26.90
2006,07,21,10,41,26.90
2006,07,21,10,42,27.10
2006,07,21,10,43,27.10
2006,07,21,10,44,27.10
2006,07,21,10,45,27.20
2006,07,21,10,46,27.30
2006,07,21,10,47,27.30
2006,07,21,10,48,27.30
2006,07,21,10,49,27.30
2006,07,21,10,50,27.30
2006,07,21,10,51,27.40
2006,07,21,10,52,27.40
2006,07,21,10,53,27.40
2006,07,21,10,54,27.40
2006,07,21,10,55,27.40
2006,07,21,10,56,27.40
2006,07,21,10,57,27.40
2006,07,21,10,58,27.40
2006,07,21,10,59,27.40
2006,07,21,11,00,27.30
2006,07,21,11,01,27.30
2006,07,21,11,02,27.30
2006,07,21,11,03,27.30
2006,07,21,11,04,27.30
2006,07,21,11,05,27.30
2006,07,21,11,06,27.30
2006,07,21,11,07,27.40
2006,07,21,11,08,27.40
2006,07,21,11,09,27.50
2006,07,21,11,10,27.60
2006,07,21,11,11,27.60
2006,07,21,11,12,27.70
2006,07,21,11,13,27.70
2006,07,21,11,14,27.80
2006,07,21,11,15,27.80
2006,07,21,11,16,27.80
2006,07,21,11,17,27.80
2006,07,21,11,18,27.90
2006,07,21,11,19,27.90
2006,07,21,11,20,27.90
2006,07,21,11,21,28.00
2006,07,21,11,22,28.00
2006,07,21,11,23,27.90
2006,07,21,11,24,28.00
2006,07,21,11,25,28.10
2006,07,21,11,26,28.20
2006,07,21,11,27,28.20
2006,07,21,11,28,28.30
2006,07,21,11,29,28.30
2006,07,21,11,30,28.20
2006,07,21,11,31,28.30
2006,07,21,11,32,28.30
2006,07,21,11,33,28.30
2006,07,21,11,34,28.40
2006,07,21,11,35,28.40
2006,07,21,11,36,28.40
2006,07,21,11,37,28.40
2006,07,21,11,38,28.40
2006,07,21,11,39,28.40
2006,07,21,11,40,28.30
2006,07,21,11,41,28.30
2006,07,21,11,42,28.30
2006,07,21,11,43,28.30
2006,07,21,11,44,28.30
2006,07,21,11,45,28.50
2006,07,21,11,46,28.80
2006,07,21,11,47,28.80
2006,07,21,11,48,28.80
2006,07,21,11,49,28.80
2006,07,21,11,50,28.80
2006,07,21,11,51,28.80
2006,07,21,11,52,28.70
2006,07,21,11,53,28.60
2006,07,21,11,54,28.60
2006,07,21,11,55,28.60
2006,07,21,11,56,28.60
2006,07,21,11,57,28.60
2006,07,21,11,58,28.70
2006,07,21,11,59,28.80
2006,07,21,12,00,28.80
2006,07,21,12,01,28.80
2006,07,21,12,02,28.90
2006,07,21,12,03,28.90
2006,07,21,12,04,28.80
2006,07,21,12,05,28.90
2006,07,21,12,06,28.90
2006,07,21,12,07,28.90
2006,07,21,12,08,28.90
2006,07,21,12,09,29.00
2006,07,21,12,10,29.10
2006,07,21,12,11,29.00
2006,07,21,12,12,29.00
2006,07,21,12,13,29.10
2006,07,21,12,14,29.20
2006,07,21,12,15,29.20
2006,07,21,12,16,29.30
2006,07,21,12,17,29.30
2006,07,21,12,18,29.20
2006,07,21,12,19,29.30
2006,07,21,12,20,29.30
2006,07,21,12,21,29.30
2006,07,21,12,22,29.40
2006,07,21,12,23,29.50
2006,07,21,12,24,29.60
2006,07,21,12,25,29.60
2006,07,21,12,26,29.60
2006,07,21,12,27,29.60
2006,07,21,12,28,29.60
2006,07,21,12,29,29.60
2006,07,21,12,30,29.60
2006,07,21,12,31,29.60
2006,07,21,12,32,29.60
2006,07,21,12,33,29.60
2006,07,21,12,34,29.70
2006,07,21,12,35,29.70
2006,07,21,12,36,29.70
2006,07,21,12,37,29.80
2006,07,21,12,38,29.90
2006,07,21,12,39,30.00
2006,07,21,12,40,30.10
2006,07,21,12,41,30.10
2006,07,21,12,42,30.00
2006,07,21,12,43,29.90
2006,07,21,12,44,29.90
2006,07,21,12,45,29.90
2006,07,21,12,46,30.00
2006,07,21,12,47,30.10
2006,07,21,12,48,30.10
2006,07,21,12,49,30.10
2006,07,21,12,50,30.10
2006,07,21,12,51,30.20
2006,07,21,12,52,30.20
2006,07,21,12,53,30.20
2006,07,21,12,54,30.30
2006,07,21,12,55,30.30
2006,07,21,12,56,30.40
2006,07,21,12,57,30.30
2006,07,21,12,58,30.30
2006,07,21,12,59,30.30
2006,07,21,13,00,30.40
2006,07,21,13,01,30.50
2006,07,21,13,02,30.60
2006,07,21,13,03,30.50
2006,07,21,13,04,30.40
2006,07,21,13,05,30.40
2006,07,21,13,06,30.40
2006,07,21,13,07,30.40
2006,07,21,13,08,30.30
2006,07,21,13,09,30.30
2006,07,21,13,10,30.30
2006,07,21,13,11,30.40
2006,07,21,13,12,30.40
2006,07,21,13,13,30.40
2006,07,21,13,14,30.40
2006,07,21,13,15,30.30
2006,07,21,13,16,30.30
2006,07,21,13,17,30.30
2006,07,21,13,18,30.40
2006,07,21,13,19,30.40
2006,07,21,13,20,30.40
2006,07,21,13,21,30.40
2006,07,21,13,22,30.40
2006,07,21,13,23,30.40
2006,07,21,13,24,30.50
2006,07,21,13,25,30.40
2006,07,21,13,26,30.30
2006,07,21,13,27,30.30
2006,07,21,13,28,30.40
2006,07,21,13,29,30.60
2006,07,21,13,30,30.60
2006,07,21,13,31,30.50
2006,07,21,13,32,30.40
2006,07,21,13,33,30.30
2006,07,21,13,34,30.20
2006,07,21,13,35,30.20
2006,07,21,13,36,30.20
2006,07,21,13,37,30.20
2006,07,21,13,38,30.30
2006,07,21,13,39,30.40
2006,07,21,13,40,30.50
2006,07,21,13,41,30.60
2006,07,21,13,42,30.60
2006,07,21,13,43,30.60
2006,07,21,13,44,30.60
2006,07,21,13,45,30.70
2006,07,21,13,46,30.70
2006,07,21,13,47,30.80
2006,07,21,13,48,30.80
2006,07,21,13,49,30.80
2006,07,21,13,50,30.80
2006,07,21,13,51,30.80
2006,07,21,13,52,30.80
2006,07,21,13,53,30.80
2006,07,21,13,54,30.90
2006,07,21,13,55,30.90
2006,07,21,13,56,30.90
2006,07,21,13,57,30.90
2006,07,21,13,58,30.80
2006,07,21,13,59,30.70
2006,07,21,14,00,30.80
2006,07,21,14,01,30.90
2006,07,21,14,02,31.00
2006,07,21,14,03,31.10
2006,07,21,14,04,31.10
2006,07,21,14,05,31.10
2006,07,21,14,06,31.00
2006,07,21,14,07,30.90
2006,07,21,14,08,30.70
2006,07,21,14,09,30.70
2006,07,21,14,10,30.70
2006,07,21,14,11,30.80
2006,07,21,14,12,30.90
2006,07,21,14,13,31.00
2006,07,21,14,14,31.10
2006,07,21,14,15,31.20
2006,07,21,14,16,31.20
2006,07,21,14,17,31.20
2006,07,21,14,18,31.20
2006,07,21,14,19,31.10
2006,07,21,14,20,31.10
2006,07,21,14,21,31.10
2006,07,21,14,22,31.00
2006,07,21,14,23,30.90
2006,07,21,14,24,30.80
2006,07,21,14,25,30.70
2006,07,21,14,26,30.70
2006,07,21,14,27,30.70
2006,07,21,14,28,30.80
2006,07,21,14,29,30.90
2006,07,21,14,30,31.00
2006,07,21,14,31,31.10
2006,07,21,14,32,31.10
2006,07,21,14,33,31.10
2006,07,21,14,34,31.20
2006,07,21,14,35,31.40
2006,07,21,14,36,31.40
2006,07,21,14,37,31.40
2006,07,21,14,38,31.30
2006,07,21,14,39,31.20
2006,07,21,14,40,31.10
2006,07,21,14,41,31.20
2006,07,21,14,42,31.10
2006,07,21,14,43,31.10
2006,07,21,14,44,31.10
2006,07,21,14,45,31.20
2006,07,21,14,46,31.30
2006,07,21,14,47,31.40
2006,07,21,14,48,31.40
2006,07,21,14,49,31.40
2006,07,21,14,50,31.40
2006,07,21,14,51,31.40
2006,07,21,14,52,31.40
2006,07,21,14,53,31.40
2006,07,21,14,54,31.40
2006,07,21,14,55,31.40
2006,07,21,14,56,31.40
2006,07,21,14,57,31.40
2006,07,21,14,58,31.30
2006,07,21,14,59,31.20
2006,07,21,15,00,31.20
2006,07,21,15,01,31.20
2006,07,21,15,02,31.20
2006,07,21,15,03,31.20
2006,07,21,15,04,31.20
2006,07,21,15,05,31.20
2006,07,21,15,06,31.10
2006,07,21,15,07,31.10
2006,07,21,15,08,31.10
2006,07,21,15,09,31.20
2006,07,21,15,10,31.20
2006,07,21,15,11,31.20
2006,07,21,15,12,31.30
2006,07,21,15,13,31.40
2006,07,21,15,14,31.50
2006,07,21,15,15,31.60
2006,07,21,15,16,31.60
2006,07,21,15,17,31.60
2006,07,21,15,18,31.60
2006,07,21,15,19,31.60
2006,07,21,15,20,31.60
2006,07,21,15,21,31.70
2006,07,21,15,22,31.60
2006,07,21,15,23,31.40
2006,07,21,15,24,31.40
2006,07,21,15,25,31.40
2006,07,21,15,26,31.50
2006,07,21,15,27,31.60
2006,07,21,15,28,31.60
2006,07,21,15,29,31.70
2006,07,21,15,30,31.80
2006,07,21,15,31,31.90
2006,07,21,15,32,31.90
2006,07,21,15,33,32.10
2006,07,21,15,34,32.10
2006,07,21,15,35,32.20
2006,07,21,15,36,32.20
2006,07,21,15,37,32.20
2006,07,21,15,38,32.10
2006,07,21,15,39,32.00
2006,07,21,15,40,31.90
2006,07,21,15,41,32.00
2006,07,21,15,42,32.10
2006,07,21,15,43,32.10
2006,07,21,15,44,32.10
2006,07,21,15,45,32.00
2006,07,21,15,46,32.10
2006,07,21,15,47,32.10
2006,07,21,15,48,32.10
2006,07,21,15,49,32.10
2006,07,21,15,50,32.20
2006,07,21,15,51,32.20
2006,07,21,15,52,32.20
2006,07,21,15,53,32.20
2006,07,21,15,54,32.20
2006,07,21,15,55,32.30
2006,07,21,15,56,32.30
2006,07,21,15,57,32.30
2006,07,21,15,58,32.30
2006,07,21,15,59,32.30
2006,07,21,16,00,32.30
2006,07,21,16,01,32.30
2006,07,21,16,02,32.40
2006,07,21,16,03,32.40
2006,07,21,16,04,32.40
2006,07,21,16,05,32.50
2006,07,21,16,06,32.50
2006,07,21,16,07,32.50
2006,07,21,16,08,32.50
2006,07,21,16,09,32.60
2006,07,21,16,10,32.60
2006,07,21,16,11,32.60
2006,07,21,16,12,32.80
2006,07,21,16,13,32.80
2006,07,21,16,14,32.90
2006,07,21,16,15,32.90
2006,07,21,16,16,32.90
2006,07,21,16,17,32.90
2006,07,21,16,18,32.90
2006,07,21,16,19,32.90
2006,07,21,16,20,32.80
2006,07,21,16,21,32.80
2006,07,21,16,22,32.80
2006,07,21,16,23,32.80
2006,07,21,16,24,32.80
2006,07,21,16,25,32.80
2006,07,21,16,26,32.80
2006,07,21,16,27,32.80
2006,07,21,16,28,32.90
2006,07,21,16,29,33.00
2006,07,21,16,30,33.00
2006,07,21,16,31,33.00
2006,07,21,16,32,33.00
2006,07,21,16,33,33.10
2006,07,21,16,34,33.10
2006,07,21,16,35,33.10
2006,07,21,16,36,33.00
2006,07,21,16,37,33.00
2006,07,21,16,38,33.00
2006,07,21,16,39,33.00
2006,07,21,16,40,33.00
2006,07,21,16,41,33.00
2006,07,21,16,42,33.00
2006,07,21,16,43,33.00
2006,07,21,16,44,33.10
2006,07,21,16,45,33.10
2006,07,21,16,46,33.10
2006,07,21,16,47,33.10
2006,07,21,16,48,33.10
2006,07,21,16,49,33.10
2006,07,21,16,50,33.10
2006,07,21,16,51,33.10
2006,07,21,16,52,33.10
2006,07,21,16,53,33.20
2006,07,21,16,54,33.20
2006,07,21,16,55,33.20
2006,07,21,16,56,33.20
2006,07,21,16,57,33.20
2006,07,21,16,58,33.20
2006,07,21,16,59,33.20
2006,07,21,17,00,33.20
2006,07,21,17,01,33.30
2006,07,21,17,02,33.40
2006,07,21,17,03,33.40
2006,07,21,17,04,33.40
2006,07,21,17,05,33.40
2006,07,21,17,06,33.40
2006,07,21,17,07,33.30
2006,07,21,17,08,33.20
2006,07,21,17,09,33.10
2006,07,21,17,10,33.10
2006,07,21,17,11,33.20
2006,07,21,17,12,33.20
2006,07,21,17,13,33.30
2006,07,21,17,14,33.40
2006,07,21,17,15,33.50
2006,07,21,17,16,33.60
2006,07,21,17,17,33.60
2006,07,21,17,18,33.50
2006,07,21,17,19,33.50